Printer-friendly version

IAU Minor Planet Center

Minor Planet Center

MPEC 2007-F37 : 2007 FG1

The following Minor Planet Electronic Circular may be linked-to from your own Web pages, but must not otherwise be redistributed electronically.


Read MPEC 2007-F36 Read MPEC 2007-F38


M.P.E.C. 2007-F37                                Issued 2007 Mar. 19, 11:44 UT

     The Minor Planet Electronic Circulars contain information on unusual
         minor planets and routine data on comets.  They are published
   on behalf of Commission 20 of the International Astronomical Union by the
          Minor Planet Center, Smithsonian Astrophysical Observatory,
                          Cambridge, MA 02138, U.S.A.

             Prepared using the Tamkin Foundation Computer Network

                              MPC@CFA.HARVARD.EDU
          URL http://cfa-www.harvard.edu/iau/mpc.html  ISSN 1523-6714

                                   2007 FG1

Observations:
     K07F01G* C2007 03 17.21928 08 55 44.32 +14 10 47.6          19.6   EF037704
     K07F01G  C2007 03 17.22996 08 55 55.61 +14 13 47.1          19.6   EF037704
     K07F01G  C2007 03 17.24091 08 56 07.36 +14 16 49.3          19.4   EF037704
     K07F01G  C2007 03 17.25146 08 56 18.68 +14 19 45.0          19.7   EF037704
     K07F01G  C2007 03 17.26240 08 56 30.68 +14 22 49.8          19.1   EF037704
     K07F01G  C2007 03 18.16300 09 16 15.48 +18 54 25.4          18.2   EF037704
     K07F01G  C2007 03 18.17481 09 16 31.26 +18 58 14.1          18.6   EF037704
     K07F01G  C2007 03 18.18656 09 16 47.05 +19 02 00.6          19.1   EF037704
     K07F01G  C2007 03 18.19849 09 17 03.06 +19 05 51.5          18.5   EF037704
     K07F01G  C2007 03 18.21031 09 17 18.97 +19 09 39.6          18.9   EF037704
     K07F01G 5C2007 03 19.19138 09 44 14.27 +24 42 54.7          18.2 R EF037673
     K07F01G 5C2007 03 19.20015 09 44 29.29 +24 46 02.7                 EF037673
     K07F01G 5C2007 03 19.20294 09 44 34.13 +24 47 02.3                 EF037673
     K07F01G 5C2007 03 19.20753 09 44 41.92 +24 48 40.3                 EF037673

Observer details:
673 Table Mountain Observatory, Wrightwood.  Observer J. Young.  0.61-m f/16
    Cassegrain + CCD.
704 Lincoln Laboratory ETS, New Mexico.  Observers M. Bezpalko, D. Torres,
    R. Kracke, G. Spitz, J. Kistler.  Measurers J. Stuart, S. Scruggs.  1.0-m
    f/2.15 reflector + CCD.

Orbital elements:
2007 FG1                                                 Earth MOID = 0.0221 AU
Epoch 2007 Apr. 10.0 TT = JDT 2454200.5                 MPC
M   6.33907              (2000.0)            P               Q
n   0.36531266     Peri.    6.95840     -0.99898960     +0.04309806
a   1.9380259      Node   175.45304     -0.04490773     -0.96832609
e   0.4761626      Incl.    9.24840     +0.00175169     -0.24594132
P   2.70           H   24.4           G   0.15           U   8
Residuals in seconds of arc
070317 704  0.8+  0.1-    070318 704  0.2+  0.3-    070319 673  0.2+  0.5+
070317 704  0.8-  0.8+    070318 704  0.1-  0.1+    070319 673  0.2-  0.3+
070317 704  0.6-  0.1-    070318 704  0.6+  0.5-    070319 673  0.4+  0.1+
070317 704  1.2-  0.9-    070318 704  0.3+  0.1-    070319 673  0.9-  0.3-
070317 704  1.2+  0.8+    070318 704  0.1+  0.2-

Ephemeris:
2007 FG1                 a,e,i = 1.94, 0.48, 9                   q = 1.0152
Date    TT    R. A. (2000) Decl.     Delta      r     Elong.  Phase     V
2007 03 11    07 47.99   -03 35.5    0.0544   1.026   125.8    51.8    20.0
2007 03 16    08 35.10   +09 03.3    0.0354   1.019   133.2    45.4    18.9
2007 03 21    10 51.46   +35 24.3    0.0251   1.016   141.2    37.9    18.0
2007 03 26    14 44.32   +45 11.3    0.0329   1.016   122.8    55.7    19.0
2007 03 31    16 26.77   +38 50.9    0.0510   1.019   111.9    65.4    20.3
2007 04 05    17 04.47   +34 15.3    0.0717   1.026   108.8    67.4    21.1
2007 04 10    17 21.95   +31 22.2    0.0930   1.035   108.8    66.3    21.7

Timothy B. Spahr             (C) Copyright 2007 MPC           M.P.E.C. 2007-F37

Read MPEC 2007-F36 Read MPEC 2007-F38


Our Web policy. Index to the CBAT/MPC/ICQ pages.


Valid HTML 4.01!